Location: Unspecified
(33.8854°N, 0.0000°E)
Time: 13:53:49
(UTC+00:00)

S-56A Canister/Altair - Visible Passes

Search period start: 04 April 2026 00:00
Search period end: 14 April 2026 00:00
Orbit: 632 x 2485 km, 38.9° (Epoch: 28 March)

Date Brightness Start Highest point End Pass type
(mag) Time Alt. Az. Time Alt. Az. Time Alt. Az.
6 Apr 11.3 04:47:52 10° S 04:56:49 22° SE 05:06:54 10° E visible
7 Apr 11.3 04:14:11 10° SSE 04:21:31 18° SE 04:29:46 10° E visible
8 Apr 11.4 03:41:16 10° SSE 03:46:19 13° ESE 03:51:50 10° E visible
9 Apr 10.8 05:03:22 10° SSW 05:14:24 42° SE 05:27:52 10° ENE visible
10 Apr 10.8 04:28:51 10° SSW 04:38:59 36° SE 04:51:33 10° ENE visible
11 Apr 10.9 03:54:32 10° S 04:03:39 30° SE 04:15:04 10° ENE visible
12 Apr 10.8 03:20:28 10° S 03:28:27 24° SE 03:38:22 10° E visible
13 Apr 10.8 02:47:37 12° SSE 02:53:21 19° SE 03:01:22 10° E visible
13 Apr 10.1 04:46:04 10° SW 04:56:55 60° SE 05:11:16 10° ENE visible
